Iowa Falls, IA

8:20 PM CDT on August 19, 2017 (GMT -0500)
Iowa Falls Municipal

Weather History for KIFA - November, 2012

Change the Weather History Date:

Sunday, November 18, 2012

  Actual Average Record
Temperature  
Mean Temperature 48 °F -  
Max Temperature 58 °F 45 °F 71 °F (1953)
Min Temperature 38 °F 27 °F 3 °F (2014)
Degree Days  
Heating Degree Days 17    
Moisture  
Dew Point 31 °F    
Average Humidity 54    
Maximum Humidity 71    
Minimum Humidity 35    
Precipitation  
Precipitation 0.00 in - - ()
Sea Level Pressure  
Sea Level Pressure 30.20 in    
Wind  
Wind Speed 14 mph (SSE)    
Max Wind Speed 20 mph    
Max Gust Speed 23 mph    
Visibility 10 miles    
Events      
Averages and records for this station are not official NWS values.
T = Trace of Precipitation, MM = Missing Value Source: NWS Daily Summary

Daily Weather History Graph

Daily Weather History Graph

Search for Another Location

Airport or City:

Trip Planner

Search our weather history database for the weather conditions in past years. The results will help you decide how hot, cold, wet, or windy it might be!

Date:

Astronomy

Nov. 18, 2012 Rise Set
Actual Time 7:08 AM CST 4:47 PM CST
Civil Twilight 6:37 AM CST 5:18 PM CST
Nautical Twilight 6:03 AM CST 5:52 PM CST
Astronomical Twilight 5:30 AM CST 6:26 PM CST
Moon 11:34 AM CST (11/18) 10:10 PM CST (11/18)
Length of Visible Light 10h 40m
Length of Day
9h 39m
Waxing Crescent, 30% of the Moon is Illuminated
Nov 18
Waxing Crescent
Nov 20
First Quarter
Nov 28
Full
Dec 6
Last Quarter
Dec 13
New

Hourly Weather History & Observations

Time (CST) Temp. Windchill Dew Point Humidity Pressure Visibility Wind Dir Wind Speed Gust Speed Precip Events Conditions
12:15 AM 43.0 °F 36.4 °F 31.1 °F 63% 30.27 in 10.0 mi SSE 12.7 mph - N/A   Overcast
12:35 AM 43.3 °F 36.5 °F 30.7 °F 61% 30.26 in 10.0 mi SSE 13.8 mph 19.6 mph N/A   Mostly Cloudy
12:55 AM 43.0 °F 35.4 °F 29.8 °F 60% 30.26 in 10.0 mi SSE 16.1 mph - N/A   Clear
1:15 AM 42.8 °F 35.4 °F 29.7 °F 60% 30.26 in 10.0 mi SSE 15.0 mph - N/A   Scattered Clouds
1:35 AM 42.8 °F 35.8 °F 30.0 °F 61% 30.26 in 10.0 mi SSE 13.8 mph - N/A   Mostly Cloudy
2:15 AM 42.3 °F 35.1 °F 30.0 °F 62% 30.26 in 10.0 mi SSE 13.8 mph - N/A   Overcast
2:35 AM 42.4 °F 35.7 °F 29.5 °F 60% 30.26 in 10.0 mi SSE 12.7 mph - N/A   Overcast
2:55 AM 42.6 °F 35.2 °F 29.3 °F 59% 30.25 in 10.0 mi SSE 15.0 mph 19.6 mph N/A   Overcast
3:15 AM 42.3 °F 34.4 °F 29.1 °F 60% 30.25 in 10.0 mi SSE 16.1 mph - N/A   Overcast
3:35 AM 42.3 °F 34.8 °F 29.1 °F 60% 30.25 in 10.0 mi SSE 15.0 mph - N/A   Overcast
4:15 AM 42.1 °F 34.9 °F 29.8 °F 62% 30.24 in 10.0 mi SSE 13.8 mph - N/A   Overcast
4:35 AM 42.1 °F 34.9 °F 29.8 °F 62% 30.23 in 10.0 mi SSE 13.8 mph - N/A   Overcast
4:55 AM 41.9 °F 34.0 °F 29.7 °F 62% 30.23 in 10.0 mi SSE 16.1 mph - N/A   Overcast
5:15 AM 41.2 °F 33.4 °F 29.8 °F 64% 30.23 in 10.0 mi SSE 15.0 mph - N/A   Overcast
5:35 AM 41.0 °F 33.5 °F 29.8 °F 64% 30.22 in 10.0 mi SSE 13.8 mph - N/A   Overcast
5:55 AM 40.3 °F 33.0 °F 29.7 °F 66% 30.22 in 10.0 mi SSE 12.7 mph - N/A   Overcast
6:15 AM 39.4 °F 32.3 °F 29.3 °F 67% 30.22 in 10.0 mi SSE 11.5 mph - N/A   Overcast
6:35 AM 38.7 °F 30.9 °F 29.7 °F 70% 30.21 in 10.0 mi SSE 12.7 mph - N/A   Overcast
6:55 AM 38.7 °F 30.9 °F 29.7 °F 70% 30.21 in 10.0 mi SSE 12.7 mph - N/A   Overcast
7:15 AM 38.5 °F 31.1 °F 29.7 °F 71% 30.21 in 10.0 mi SSE 11.5 mph - N/A   Overcast
7:35 AM 38.3 °F 30.9 °F 29.7 °F 71% 30.21 in 10.0 mi SSE 11.5 mph - N/A   Overcast
7:55 AM 38.5 °F 30.7 °F 29.8 °F 71% 30.21 in 10.0 mi SSE 12.7 mph - N/A   Overcast
8:15 AM 39.7 °F 31.5 °F 29.7 °F 67% 30.21 in 10.0 mi SSE 15.0 mph - N/A   Overcast
8:35 AM 40.1 °F 31.3 °F 29.7 °F 66% 30.22 in 10.0 mi SSE 17.3 mph - N/A   Overcast
9:15 AM 42.3 °F 35.5 °F 30.6 °F 63% 30.21 in 10.0 mi South 12.7 mph 18.4 mph N/A   Clear
9:35 AM 43.2 °F 36.2 °F 30.4 °F 61% 30.21 in 10.0 mi SSE 13.8 mph - N/A   Clear
9:55 AM 43.7 °F 38.1 °F 30.9 °F 61% 30.21 in 10.0 mi SSE 10.4 mph - N/A   Clear
10:15 AM 45.9 °F 39.7 °F 31.1 °F 56% 30.21 in 10.0 mi SSE 13.8 mph - N/A   Scattered Clouds
10:35 AM 50.7 °F - 31.8 °F 48% 30.21 in 10.0 mi SSE 12.7 mph - N/A   Scattered Clouds
10:55 AM 50.2 °F - 30.2 °F 46% 30.21 in 10.0 mi South 13.8 mph - N/A   Scattered Clouds
11:15 AM 51.1 °F - 30.9 °F 46% 30.21 in 10.0 mi SSE 15.0 mph - N/A   Overcast
11:35 AM 51.3 °F - 30.7 °F 45% 30.21 in 10.0 mi South 13.8 mph - N/A   Overcast
11:55 AM 52.0 °F - 31.1 °F 45% 30.20 in 10.0 mi SSE 15.0 mph - N/A   Overcast
12:15 PM 54.7 °F - 30.7 °F 40% 30.19 in 10.0 mi South 13.8 mph - N/A   Overcast
12:35 PM 54.1 °F - 31.5 °F 42% 30.18 in 10.0 mi SSE 17.3 mph - N/A   Scattered Clouds
1:15 PM 57.2 °F - 31.1 °F 37% 30.17 in 10.0 mi South 19.6 mph - N/A   Clear
1:35 PM 58.3 °F - 30.7 °F 35% 30.16 in 10.0 mi SSE 18.4 mph 23.0 mph N/A   Clear
1:55 PM 57.6 °F - 30.7 °F 36% 30.16 in 10.0 mi SSE 18.4 mph - N/A   Clear
2:15 PM 57.2 °F - 30.7 °F 37% 30.15 in 10.0 mi SSE 18.4 mph - N/A   Clear
3:15 PM 58.1 °F - 31.8 °F 37% 30.16 in 10.0 mi SSE 17.3 mph - N/A   Clear
3:55 PM 55.9 °F - 32.0 °F 40% 30.15 in 10.0 mi SSE 11.5 mph - N/A   Clear
4:35 PM 54.5 °F - 32.0 °F 42% 30.16 in 10.0 mi SSE 10.4 mph - N/A   Clear
4:55 PM 54.0 °F - 32.0 °F 43% 30.17 in 10.0 mi SSE 10.4 mph - N/A   Mostly Cloudy
5:15 PM 52.7 °F - 32.0 °F 45% 30.16 in 10.0 mi SSE 11.5 mph - N/A   Scattered Clouds
5:35 PM 51.6 °F - 32.2 °F 47% 30.17 in 10.0 mi SE 10.4 mph - N/A   Clear
6:35 PM 50.5 °F - 32.4 °F 50% 30.16 in 10.0 mi SE 12.7 mph - N/A   Scattered Clouds
6:55 PM 50.0 °F - 32.9 °F 52% 30.16 in 10.0 mi SE 10.4 mph - N/A   Clear
7:15 PM 50.0 °F - 32.9 °F 52% 30.16 in 10.0 mi SE 12.7 mph - N/A   Clear
7:35 PM 50.0 °F - 32.9 °F 52% 30.16 in 10.0 mi SE 10.4 mph - N/A   Clear
7:55 PM 50.0 °F - 32.9 °F 52% 30.16 in 10.0 mi SE 11.5 mph - N/A   Clear
8:15 PM 49.5 °F - 32.9 °F 53% 30.16 in 10.0 mi SE 11.5 mph - N/A   Scattered Clouds
8:35 PM 49.6 °F - 32.9 °F 53% 30.15 in 10.0 mi SE 12.7 mph - N/A   Clear
8:55 PM 49.6 °F - 32.5 °F 52% 30.16 in 10.0 mi SSE 13.8 mph - N/A   Scattered Clouds
9:15 PM 49.6 °F - 32.7 °F 52% 30.15 in 10.0 mi SSE 12.7 mph - N/A   Scattered Clouds
9:35 PM 50.2 °F - 32.4 °F 50% 30.15 in 10.0 mi SSE 15.0 mph - N/A   Mostly Cloudy
9:55 PM 50.5 °F - 32.0 °F 49% 30.15 in 10.0 mi SSE 13.8 mph - N/A   Mostly Cloudy
10:35 PM 51.1 °F - 32.0 °F 48% 30.16 in 10.0 mi SSE 12.7 mph - N/A   Overcast
10:55 PM 51.1 °F - 32.0 °F 48% 30.16 in 10.0 mi SSE 13.8 mph - N/A   Overcast
11:15 PM 51.1 °F - 32.0 °F 48% 30.15 in 10.0 mi SSE 13.8 mph - N/A   Overcast
11:35 PM 50.9 °F - 32.0 °F 48% 30.15 in 10.0 mi SSE 12.7 mph - N/A   Overcast
11:55 PM 50.9 °F - 32.0 °F 48% 30.15 in 10.0 mi SSE 13.8 mph - N/A   Overcast